Weather in Kokorevo

Russia / Kirov Oblast     57°15′02″N   49°33′53″E
temp.,
°C
wind,
m/s
gust,
m/s
humid.,
%
clouds,
%
prec.,
mm/h
press.,
hPa
HPBL,
m
24 january, mon
mon2400:00−14wsw2299100 0.0 103414
03:00−17w2210092 0.1 10369
06:00−16w1110096 0.0 103612
09:00−11wsw229696 0.1 103780
12:00−8sw239399 0.1 1036253
15:00−12sw229862 0.1 103611
18:00−17sw2210092 0.0 103619
21:00−18sw3310099 0.0 103537
25 january, tue
tue2500:00−20sw22100100 0.0 103417
03:00−18sw34100100 0.0 103353
06:00−17ssw369837 0.0 103166
09:00−17ssw26955 0.0 102982
12:00−11ssw37895 0.0 1028209
15:00−12s35945 0.0 102679
18:00−15s410945 0.0 1025135
21:00−17s3794100 0.0 1024110
26 january, wed
wed2600:00−18s389788 0.0 1023102
03:00−18sse359882 0.0 102265
06:00−17sse359864 0.0 102059
09:00−14sse4996100 0.1 1019239
12:00−11s4793100 0.5 1018299
15:00−10sse369581 0.7 1018272
18:00−11s369698 0.3 1017169
21:00−12s249797 0.5 101793
27 january, thu
thu2700:00−12ssw2596100 0.2 1017127
03:00−11ssw3696100 0.4 1017179
06:00−12ssw3696100 0.2 1017158
09:00−12ssw3796100 0.2 1018184
12:00−9ssw4693100 0.2 1018378
15:00−9ssw3794100 0.4 1018437
18:00−12s379791 0.1 1019141
21:00−18ssw3410069 0.1 101952
28 january, fri
fri2800:00−19s3410085 0.0 102050
03:00−19s2310078 0.1 102047
06:00−18s249982 0.1 101968
09:00−17s259989 0.1 1019102
12:00−13s359479 0.0 1018182
15:00−13se349631 0.0 101870
18:00−16sse349857 0.0 101852
21:00−17se249962 0.0 101747